Terminal Aerodrome Forecast
Issued by NWS Cheyenne, WY

Home | Current Version | Previous Version | Text Only | Print | Product List | Glossary On
Versions: 1 2 3 4 5 6 7 8 9 10 11 12 13 14 15 16 17 18 19 20 21 22 23 24 25 26 27 28 29 30 31 32 33 34 35 36 37 38 39 40 41 42 43 44 45 46 47 48 49 50
000
FTUS45 KCYS 230401 AAB
TAFCYS
TAF AMD
KCYS 230401Z 2304/2324 14010KT 3SM BR OVC002
     FM230700 18008KT 1/4SM -DZ FG VV001
     FM231400 17008KT 2SM BR OVC001
     FM231600 15009KT P6SM OVC007
     FM231800 15012G22KT P6SM VCTS BKN025CB=

USA.gov is the U.S. government's official web portal to all federal, state and local government web resources and services.